Time,TemperatureF,DewpointF,PressureIn,WindDirection,WindDirectionDegrees,WindSpeedMPH,WindSpeedGustMPH,Humidity,HourlyPrecipIn,Conditions,Clouds,dailyrainin,SoftwareType,DateUTC
2013-03-17 00:03:00,71.0,59.0,30.09,East,84,3.0,-999.0,67,-99.99,,,-99.99,,2013-03-17 04:03:00,
2013-03-17 00:13:00,71.0,59.0,30.09,East,84,3.0,-999.0,67,-99.99,,,-99.99,,2013-03-17 04:13:00,
2013-03-17 00:23:00,71.0,59.0,30.09,ESE,111,6.0,-999.0,67,-99.99,,,-99.99,,2013-03-17 04:23:00,
2013-03-17 00:32:00,71.0,59.0,30.09,SE,127,5.0,-999.0,66,-99.99,,,-99.99,,2013-03-17 04:32:00,
2013-03-17 00:43:00,71.0,59.0,30.09,SE,127,5.0,-999.0,66,-99.99,,,-99.99,,2013-03-17 04:43:00,
2013-03-17 00:53:00,71.0,60.0,30.08,ESE,113,6.0,-999.0,69,-99.99,,,-99.99,,2013-03-17 04:53:00,
2013-03-17 01:03:00,70.0,59.0,30.08,ESE,107,9.0,-999.0,67,-99.99,,,-99.99,,2013-03-17 05:03:00,
2013-03-17 01:12:00,70.0,59.0,30.08,ESE,107,9.0,-999.0,67,-99.99,,,-99.99,,2013-03-17 05:12:00,
2013-03-17 01:22:00,70.0,59.0,30.07,SE,127,4.0,-999.0,69,-99.99,,,-99.99,,2013-03-17 05:22:00,
2013-03-17 01:32:00,70.0,59.0,30.07,ESE,116,7.0,-999.0,68,-99.99,,,-99.99,,2013-03-17 05:32:00,
2013-03-17 01:42:00,70.0,59.0,30.07,ESE,116,7.0,-999.0,68,-99.99,,,-99.99,,2013-03-17 05:42:00,
2013-03-17 01:52:00,70.0,59.0,30.06,ESE,108,8.0,-999.0,69,-99.99,,,-99.99,,2013-03-17 05:52:00,
2013-03-17 02:02:00,70.0,60.0,30.06,ESE,121,6.0,-999.0,70,-99.99,,,-99.99,,2013-03-17 06:02:00,
2013-03-17 02:12:00,70.0,60.0,30.06,ESE,121,6.0,-999.0,70,-99.99,,,-99.99,,2013-03-17 06:12:00,
2013-03-17 02:22:00,70.0,61.0,30.06,ESE,110,6.0,-999.0,72,-99.99,,,-99.99,,2013-03-17 06:22:00,
2013-03-17 02:32:00,70.0,61.0,30.06,East,96,9.0,-999.0,72,-99.99,,,-99.99,,2013-03-17 06:32:00,
2013-03-17 02:42:00,70.0,61.0,30.06,East,96,9.0,-999.0,72,-99.99,,,-99.99,,2013-03-17 06:42:00,
2013-03-17 02:52:00,70.0,61.0,30.05,ESE,105,9.0,-999.0,72,-99.99,,,-99.99,,2013-03-17 06:52:00,
2013-03-17 03:02:00,70.0,60.0,30.04,East,101,9.0,-999.0,71,-99.99,,,-99.99,,2013-03-17 07:02:00,
2013-03-17 03:12:00,70.0,60.0,30.04,East,101,9.0,-999.0,71,-99.99,,,-99.99,,2013-03-17 07:12:00,
2013-03-17 03:22:00,70.0,60.0,30.05,East,99,7.0,-999.0,71,-99.99,,,-99.99,,2013-03-17 07:22:00,
2013-03-17 03:32:00,70.0,61.0,30.04,SE,137,4.0,-999.0,72,-99.99,,,-99.99,,2013-03-17 07:32:00,
2013-03-17 03:42:00,70.0,61.0,30.04,SE,137,4.0,-999.0,72,-99.99,,,-99.99,,2013-03-17 07:42:00,
2013-03-17 03:52:00,70.0,61.0,30.03,ESE,102,7.0,-999.0,72,-99.99,,,-99.99,,2013-03-17 07:52:00,
2013-03-17 04:03:00,70.0,61.0,30.03,East,82,4.0,-999.0,73,-99.99,,,-99.99,,2013-03-17 08:03:00,
2013-03-17 04:13:00,70.0,61.0,30.02,ESE,119,6.0,-999.0,73,-99.99,,,-99.99,,2013-03-17 08:13:00,
2013-03-17 04:22:00,70.0,61.0,30.02,ESE,119,6.0,-999.0,73,-99.99,,,-99.99,,2013-03-17 08:22:00,
2013-03-17 04:32:00,70.0,61.0,30.02,SE,134,7.0,-999.0,73,-99.99,,,-99.99,,2013-03-17 08:32:00,
2013-03-17 04:42:00,70.0,61.0,30.02,SE,134,7.0,-999.0,73,-99.99,,,-99.99,,2013-03-17 08:42:00,
2013-03-17 04:52:00,70.0,61.0,30.02,SSE,152,3.0,-999.0,73,-99.99,,,-99.99,,2013-03-17 08:52:00,
2013-03-17 05:03:00,70.0,61.0,30.02,SE,130,5.0,-999.0,73,-99.99,,,-99.99,,2013-03-17 09:03:00,
2013-03-17 05:12:00,70.0,61.0,30.02,SE,130,5.0,-999.0,73,-99.99,,,-99.99,,2013-03-17 09:12:00,
2013-03-17 05:22:00,70.0,61.0,30.02,ESE,122,6.0,-999.0,74,-99.99,,,-99.99,,2013-03-17 09:22:00,
2013-03-17 05:32:00,70.0,61.0,30.02,SE,136,4.0,-999.0,74,-99.99,,,-99.99,,2013-03-17 09:32:00,
2013-03-17 05:43:00,70.0,61.0,30.02,SE,136,4.0,-999.0,74,-99.99,,,-99.99,,2013-03-17 09:43:00,
2013-03-17 05:53:00,70.0,61.0,30.03,SSE,153,4.0,-999.0,74,-99.99,,,-99.99,,2013-03-17 09:53:00,
2013-03-17 06:03:00,70.0,62.0,30.02,ESE,117,4.0,-999.0,75,-99.99,,,-99.99,,2013-03-17 10:03:00,
2013-03-17 06:13:00,70.0,62.0,30.02,ESE,117,4.0,-999.0,75,-99.99,,,-99.99,,2013-03-17 10:13:00,
2013-03-17 06:23:00,70.0,62.0,30.03,SE,142,4.0,-999.0,75,-99.99,,,-99.99,,2013-03-17 10:23:00,
2013-03-17 06:33:00,70.0,62.0,30.03,SE,136,3.0,-999.0,75,-99.99,,,-99.99,,2013-03-17 10:33:00,
2013-03-17 06:42:00,70.0,62.0,30.03,SE,136,3.0,-999.0,75,-99.99,,,-99.99,,2013-03-17 10:42:00,
2013-03-17 06:52:00,70.0,62.0,30.03,SE,130,5.0,-999.0,75,-99.99,,,-99.99,,2013-03-17 10:52:00,
2013-03-17 07:02:00,70.0,62.0,30.04,East,90,3.0,-999.0,76,-99.99,,,-99.99,,2013-03-17 11:02:00,
2013-03-17 07:12:00,70.0,62.0,30.04,East,90,3.0,-999.0,76,-99.99,,,-99.99,,2013-03-17 11:12:00,
2013-03-17 07:22:00,70.0,62.0,30.05,ESE,105,8.0,-999.0,75,-99.99,,,-99.99,,2013-03-17 11:22:00,
2013-03-17 07:32:00,70.0,62.0,30.05,East,93,5.0,-999.0,75,-99.99,,,-99.99,,2013-03-17 11:32:00,
2013-03-17 07:42:00,70.0,62.0,30.05,East,93,5.0,-999.0,75,-99.99,,,-99.99,,2013-03-17 11:42:00,
2013-03-17 07:52:00,70.0,62.0,30.06,SE,144,3.0,-999.0,76,-99.99,,,-99.99,,2013-03-17 11:52:00,
2013-03-17 08:02:00,70.0,62.0,30.06,SE,136,6.0,-999.0,76,-99.99,,,-99.99,,2013-03-17 12:02:00,
2013-03-17 08:12:00,70.0,62.0,30.06,SE,136,6.0,-999.0,76,-99.99,,,-99.99,,2013-03-17 12:12:00,
2013-03-17 08:22:00,70.0,62.0,30.05,ESE,121,6.0,-999.0,75,-99.99,,,-99.99,,2013-03-17 12:22:00,
2013-03-17 08:33:00,71.0,62.0,30.06,SE,128,7.0,-999.0,74,-99.99,,,-99.99,,2013-03-17 12:33:00,
2013-03-17 08:43:00,71.0,62.0,30.06,SE,128,7.0,-999.0,74,-99.99,,,-99.99,,2013-03-17 12:43:00,
2013-03-17 08:52:00,71.0,62.0,30.06,SE,134,5.0,-999.0,73,-99.99,,,-99.99,,2013-03-17 12:52:00,
2013-03-17 09:02:00,71.0,62.0,30.07,ESE,105,6.0,-999.0,73,-99.99,,,-99.99,,2013-03-17 13:02:00,
2013-03-17 09:13:00,71.0,62.0,30.07,ESE,105,6.0,-999.0,73,-99.99,,,-99.99,,2013-03-17 13:13:00,
2013-03-17 09:22:00,71.0,62.0,30.08,SE,140,4.0,-999.0,73,-99.99,,,-99.99,,2013-03-17 13:22:00,
2013-03-17 09:32:00,71.0,62.0,30.08,SE,143,3.0,-999.0,72,-99.99,,,-99.99,,2013-03-17 13:32:00,
2013-03-17 09:42:00,71.0,62.0,30.08,SE,143,3.0,-999.0,72,-99.99,,,-99.99,,2013-03-17 13:42:00,
2013-03-17 09:52:00,72.0,62.0,30.09,SSE,150,4.0,-999.0,72,-99.99,,,-99.99,,2013-03-17 13:52:00,
2013-03-17 10:02:00,72.0,62.0,30.09,East,94,2.0,-999.0,72,-99.99,,,-99.99,,2013-03-17 14:02:00,
2013-03-17 10:12:00,72.0,62.0,30.09,East,94,2.0,-999.0,72,-99.99,,,-99.99,,2013-03-17 14:12:00,
2013-03-17 10:22:00,74.0,63.0,30.09,East,101,5.0,-999.0,69,-99.99,,,-99.99,,2013-03-17 14:22:00,
2013-03-17 10:32:00,74.0,63.0,30.09,ESE,105,5.0,-999.0,69,-99.99,,,-99.99,,2013-03-17 14:32:00,
2013-03-17 10:42:00,74.0,63.0,30.09,ESE,105,5.0,-999.0,69,-99.99,,,-99.99,,2013-03-17 14:42:00,
2013-03-17 10:53:00,74.0,63.0,30.09,SE,133,6.0,-999.0,69,-99.99,,,-99.99,,2013-03-17 14:53:00,
2013-03-17 11:02:00,73.0,63.0,30.09,SE,129,6.0,-999.0,70,-99.99,,,-99.99,,2013-03-17 15:02:00,
2013-03-17 11:12:00,73.0,63.0,30.09,SE,129,6.0,-999.0,70,-99.99,,,-99.99,,2013-03-17 15:12:00,
2013-03-17 11:23:00,73.0,63.0,30.09,ESE,115,7.0,-999.0,70,-99.99,,,-99.99,,2013-03-17 15:23:00,
2013-03-17 11:33:00,74.0,63.0,30.09,ESE,114,7.0,-999.0,69,-99.99,,,-99.99,,2013-03-17 15:33:00,
2013-03-17 11:43:00,74.0,63.0,30.09,ESE,114,7.0,-999.0,69,-99.99,,,-99.99,,2013-03-17 15:43:00,
2013-03-17 11:53:00,75.0,64.0,30.08,ESE,108,7.0,-999.0,68,-99.99,,,-99.99,,2013-03-17 15:53:00,
2013-03-17 12:03:00,75.0,63.0,30.09,SE,128,6.0,-999.0,67,-99.99,,,-99.99,,2013-03-17 16:03:00,
2013-03-17 12:12:00,75.0,63.0,30.09,SE,128,6.0,-999.0,67,-99.99,,,-99.99,,2013-03-17 16:12:00,
2013-03-17 12:23:00,74.0,63.0,30.08,SE,137,6.0,-999.0,68,-99.99,,,-99.99,,2013-03-17 16:23:00,
2013-03-17 12:33:00,74.0,63.0,30.08,ESE,103,8.0,-999.0,68,-99.99,,,-99.99,,2013-03-17 16:33:00,
2013-03-17 12:43:00,74.0,63.0,30.08,ESE,103,8.0,-999.0,68,-99.99,,,-99.99,,2013-03-17 16:43:00,
2013-03-17 12:52:00,74.0,63.0,30.08,SE,130,7.0,-999.0,68,-99.99,,,-99.99,,2013-03-17 16:52:00,
2013-03-17 13:02:00,75.0,64.0,30.08,SE,132,5.0,-999.0,68,-99.99,,,-99.99,,2013-03-17 17:02:00,
2013-03-17 13:12:00,75.0,64.0,30.08,SE,132,5.0,-999.0,68,-99.99,,,-99.99,,2013-03-17 17:12:00,
2013-03-17 13:22:00,75.0,64.0,30.07,ESE,113,5.0,-999.0,68,-99.99,,,-99.99,,2013-03-17 17:22:00,
2013-03-17 13:33:00,75.0,64.0,30.07,ESE,109,4.0,-999.0,68,-99.99,,,-99.99,,2013-03-17 17:33:00,
2013-03-17 13:42:00,75.0,64.0,30.07,ESE,109,4.0,-999.0,68,-99.99,,,-99.99,,2013-03-17 17:42:00,
2013-03-17 13:53:00,75.0,63.0,30.07,SSE,153,7.0,-999.0,66,-99.99,,,-99.99,,2013-03-17 17:53:00,
2013-03-17 14:02:00,76.0,64.0,30.07,East,92,3.0,-999.0,67,-99.99,,,-99.99,,2013-03-17 18:02:00,
2013-03-17 14:12:00,76.0,64.0,30.07,East,92,3.0,-999.0,67,-99.99,,,-99.99,,2013-03-17 18:12:00,
2013-03-17 14:22:00,76.0,65.0,30.05,ESE,113,7.0,-999.0,68,-99.99,,,-99.99,,2013-03-17 18:22:00,
2013-03-17 14:32:00,76.0,65.0,30.05,East,98,5.0,-999.0,70,-99.99,,,-99.99,,2013-03-17 18:32:00,
2013-03-17 14:42:00,76.0,65.0,30.05,East,98,5.0,-999.0,70,-99.99,,,-99.99,,2013-03-17 18:42:00,
2013-03-17 14:52:00,76.0,65.0,30.03,ESE,109,3.0,-999.0,70,-99.99,,,-99.99,,2013-03-17 18:52:00,
2013-03-17 15:02:00,75.0,64.0,30.03,East,96,5.0,-999.0,69,-99.99,,,-99.99,,2013-03-17 19:02:00,
2013-03-17 15:12:00,75.0,64.0,30.03,East,96,5.0,-999.0,69,-99.99,,,-99.99,,2013-03-17 19:12:00,
2013-03-17 15:22:00,76.0,65.0,30.01,SE,130,6.0,-999.0,68,-99.99,,,-99.99,,2013-03-17 19:22:00,
2013-03-17 15:33:00,76.0,65.0,30.01,SE,128,9.0,-999.0,70,-99.99,,,-99.99,,2013-03-17 19:33:00,
2013-03-17 15:42:00,76.0,65.0,30.01,SE,128,9.0,-999.0,70,-99.99,,,-99.99,,2013-03-17 19:42:00,
2013-03-17 15:53:00,75.0,65.0,30.01,SE,138,9.0,-999.0,70,-99.99,,,-99.99,,2013-03-17 19:53:00,
2013-03-17 16:02:00,75.0,65.0,30.00,SE,144,5.0,-999.0,70,-99.99,,,-99.99,,2013-03-17 20:02:00,
2013-03-17 16:12:00,75.0,65.0,30.00,SE,144,5.0,-999.0,70,-99.99,,,-99.99,,2013-03-17 20:12:00,
2013-03-17 16:22:00,76.0,65.0,29.99,SE,125,8.0,-999.0,69,-99.99,,,-99.99,,2013-03-17 20:22:00,
2013-03-17 16:33:00,76.0,64.0,30.00,SE,143,8.0,-999.0,67,-99.99,,,-99.99,,2013-03-17 20:33:00,
2013-03-17 16:42:00,76.0,64.0,30.00,SE,143,8.0,-999.0,67,-99.99,,,-99.99,,2013-03-17 20:42:00,
2013-03-17 16:52:00,76.0,65.0,30.00,SSE,166,7.0,-999.0,68,-99.99,,,-99.99,,2013-03-17 20:52:00,
2013-03-17 17:03:00,76.0,65.0,30.00,ESE,123,5.0,-999.0,68,-99.99,,,-99.99,,2013-03-17 21:03:00,
2013-03-17 17:12:00,76.0,65.0,30.00,ESE,123,5.0,-999.0,68,-99.99,,,-99.99,,2013-03-17 21:12:00,
2013-03-17 17:22:00,75.0,64.0,29.99,East,101,6.0,-999.0,68,-99.99,,,-99.99,,2013-03-17 21:22:00,
2013-03-17 17:33:00,75.0,65.0,29.99,SE,124,5.0,-999.0,70,-99.99,,,-99.99,,2013-03-17 21:33:00,
2013-03-17 17:43:00,75.0,65.0,29.99,SE,124,5.0,-999.0,70,-99.99,,,-99.99,,2013-03-17 21:43:00,
2013-03-17 17:52:00,75.0,64.0,29.98,ESE,105,7.0,-999.0,69,-99.99,,,-99.99,,2013-03-17 21:52:00,
2013-03-17 18:03:00,75.0,64.0,30.00,ESE,113,6.0,-999.0,69,-99.99,,,-99.99,,2013-03-17 22:03:00,
2013-03-17 18:13:00,74.0,64.0,30.00,East,94,7.0,-999.0,72,-99.99,,,-99.99,,2013-03-17 22:13:00,
2013-03-17 18:23:00,74.0,64.0,30.00,East,94,7.0,-999.0,72,-99.99,,,-99.99,,2013-03-17 22:23:00,
2013-03-17 18:33:00,74.0,64.0,30.00,East,92,6.0,-999.0,72,-99.99,,,-99.99,,2013-03-17 22:33:00,
2013-03-17 18:42:00,74.0,64.0,30.00,East,92,6.0,-999.0,72,-99.99,,,-99.99,,2013-03-17 22:42:00,
2013-03-17 18:53:00,74.0,66.0,30.00,ESE,115,7.0,-999.0,76,-99.99,,,-99.99,,2013-03-17 22:53:00,
2013-03-17 19:03:00,74.0,66.0,29.99,ESE,111,5.0,-999.0,76,-99.99,,,-99.99,,2013-03-17 23:03:00,
2013-03-17 19:12:00,74.0,66.0,29.99,ESE,111,5.0,-999.0,76,-99.99,,,-99.99,,2013-03-17 23:12:00,
2013-03-17 19:22:00,73.0,65.0,29.98,SE,129,6.0,-999.0,76,-99.99,,,-99.99,,2013-03-17 23:22:00,
2013-03-17 19:33:00,73.0,65.0,29.98,ESE,121,7.0,-999.0,75,-99.99,,,-99.99,,2013-03-17 23:33:00,
2013-03-17 19:42:00,73.0,65.0,29.98,ESE,121,7.0,-999.0,75,-99.99,,,-99.99,,2013-03-17 23:42:00,
2013-03-17 19:53:00,73.0,65.0,29.98,ESE,105,5.0,-999.0,76,-99.99,,,-99.99,,2013-03-17 23:53:00,
2013-03-17 20:03:00,73.0,65.0,29.98,ESE,119,6.0,-999.0,76,-99.99,,,-99.99,,2013-03-18 00:03:00,
2013-03-17 20:12:00,73.0,65.0,29.98,ESE,119,6.0,-999.0,76,-99.99,,,-99.99,,2013-03-18 00:12:00,
2013-03-17 20:22:00,73.0,65.0,29.98,East,98,5.0,-999.0,77,-99.99,,,-99.99,,2013-03-18 00:22:00,
2013-03-17 20:33:00,73.0,65.0,29.98,SE,126,7.0,-999.0,77,-99.99,,,-99.99,,2013-03-18 00:33:00,
2013-03-17 20:42:00,73.0,65.0,29.98,SE,126,7.0,-999.0,77,-99.99,,,-99.99,,2013-03-18 00:42:00,
2013-03-17 20:53:00,73.0,65.0,29.98,ESE,103,7.0,-999.0,76,-99.99,,,-99.99,,2013-03-18 00:53:00,
2013-03-17 21:02:00,73.0,65.0,29.98,SE,129,8.0,-999.0,76,-99.99,,,-99.99,,2013-03-18 01:02:00,
2013-03-17 21:12:00,73.0,65.0,29.98,SE,129,8.0,-999.0,76,-99.99,,,-99.99,,2013-03-18 01:12:00,
2013-03-17 21:22:00,73.0,65.0,29.98,SE,124,7.0,-999.0,76,-99.99,,,-99.99,,2013-03-18 01:22:00,
2013-03-17 21:32:00,73.0,65.0,29.99,ESE,109,7.0,-999.0,76,-99.99,,,-99.99,,2013-03-18 01:32:00,
2013-03-17 21:42:00,73.0,65.0,29.99,ESE,109,7.0,-999.0,76,-99.99,,,-99.99,,2013-03-18 01:42:00,
2013-03-17 21:52:00,73.0,65.0,30.01,SE,124,5.0,-999.0,76,-99.99,,,-99.99,,2013-03-18 01:52:00,
2013-03-17 22:02:00,73.0,65.0,30.01,SE,129,5.0,-999.0,77,-99.99,,,-99.99,,2013-03-18 02:02:00,
2013-03-17 22:12:00,73.0,65.0,30.01,SE,129,5.0,-999.0,77,-99.99,,,-99.99,,2013-03-18 02:12:00,
2013-03-17 22:22:00,73.0,66.0,30.01,ESE,113,6.0,-999.0,78,-99.99,,,-99.99,,2013-03-18 02:22:00,
2013-03-17 22:32:00,73.0,66.0,30.01,SE,129,7.0,-999.0,78,-99.99,,,-99.99,,2013-03-18 02:32:00,
2013-03-17 22:42:00,73.0,66.0,30.01,SE,129,7.0,-999.0,78,-99.99,,,-99.99,,2013-03-18 02:42:00,
2013-03-17 22:52:00,73.0,66.0,30.02,East,101,4.0,-999.0,79,-99.99,,,-99.99,,2013-03-18 02:52:00,
2013-03-17 23:03:00,73.0,66.0,30.03,ESE,120,5.0,-999.0,79,-99.99,,,-99.99,,2013-03-18 03:03:00,
2013-03-17 23:12:00,73.0,66.0,30.03,ESE,120,5.0,-999.0,79,-99.99,,,-99.99,,2013-03-18 03:12:00,
2013-03-17 23:22:00,73.0,66.0,30.04,ESE,123,5.0,-999.0,79,-99.99,,,-99.99,,2013-03-18 03:22:00,
2013-03-17 23:33:00,73.0,66.0,30.03,SE,139,6.0,-999.0,78,-99.99,,,-99.99,,2013-03-18 03:33:00,
2013-03-17 23:42:00,73.0,66.0,30.03,SE,139,6.0,-999.0,78,-99.99,,,-99.99,,2013-03-18 03:42:00,
2013-03-17 23:53:00,73.0,66.0,30.03,SE,130,4.0,-999.0,79,-99.99,,,-99.99,,2013-03-18 03:53:00,